SCP
0 0 0 0 0 0 0 0 0 0 0 0 0 0 0 0 0 0 0 1 1 1 0 0 0 0 0 0 0 0 0 0 0 0 0 0 0 0 0 0 0 0 0 0 0 0 0 0 0
0 0 0 0 0 0 0 0 0 0 0 0 0 0 0 0 0 0 0 1 1 1 0 0 0 0 0 0 0 0 0 0 0 0 0 0 0 0 0 0 0 0 0 0 0 0 0 0 0
0 0 0 0 0 0 0 0 0 0 0 0 0 0 0 0 0 0 0 0 1 0 0 0 0 0 0 0 0 0 0 0 0 0 0 0 0 0 0 0 0 0 0 0 0 0 0 0 0
0 0 0 0 0 0 0 0 0 0 0 0 0 0 0 0 0 0 0 0 1 0 0 0 0 0 0 0 0 0 0 0 0 0 0 0 0 0 0 0 0 0 0 0 0 0 0 0 0
0 0 0 0 0 0 0 0 0 0 0 0 0 0 0 0 0 0 0 0 0 1 1 0 0 0 0 0 0 0 0 0 0 0 0 0 0 0 0 0 0 0 0 0 0 0 0 0 0
0 0 0 0 0 0 0 0 0 0 0 0 0 0 0 0 0 0 0 0 0 1 1 1 0 0 0 0 0 0 0 0 0 0 0 0 0 0 0 0 1 1 1 1 1 1 1 0 0
-0 0 0 0 0 0 0 0 0 0 0 0 0 0 0 0 0 0 0 0 1 1 1 1 1 0 0 0 0 0 0 0 0 0 0 0 0 0 1 1 1 1 1 1 1 1 1 1 1
-0 -0 0 0 0 0 0 0 0 0 0 0 1 1 0 0 0 0 0 0 1 1 1 1 1 1 0 0 1 1 1 1 1 1 1 1 1 1 1 1 1 1 1 1 1 1 1 1 1
-0 -0 0 0 0 0 0 0 0 0 1 1 1 1 1 0 0 0 0 0 1 1 1 1 1 1 1 1 1 1 1 1 1 1 1 1 1 1 1 1 1 1 1 1 1 1 1 1 1
0 0 0 0 0 0 0 0 0 0 1 1 1 1 1 1 1 1 1 1 1 1 1 1 1 1 1 1 1 1 1 1 1 1 1 1 1 1 1 1 2 2 2 2 2 2 1 1 1
0 0 0 0 0 0 0 0 0 1 1 1 1 2 2 2 2 2 3 2 2 2 2 2 2 2 2 2 2 1 1 1 1 1 2 2 2 1 1 2 2 2 2 2 2 2 2 1 1
0 0 0 0 0 0 0 0 0 1 1 1 2 2 3 4 4 5 5 5 4 4 3 3 3 3 3 2 2 2 2 2 2 2 2 2 2 2 2 2 2 2 2 2 2 2 2 1 1
0 0 0 0 0 0 0 0 0 1 1 1 2 3 4 5 5 6 6 6 6 5 4 3 3 3 2 2 2 2 2 2 2 2 2 2 2 2 2 2 2 2 2 2 2 2 2 2 1
0 0 0 0 0 0 0 0 0 1 1 1 2 3 3 4 5 5 6 6 5 5 4 3 3 2 2 2 2 2 2 2 2 2 2 2 2 2 2 2 2 2 2 2 2 2 1 1 1
0 0 0 0 0 0 0 0 1 1 1 1 1 2 2 3 3 4 4 4 4 3 3 2 2 2 2 2 2 2 2 2 2 2 2 2 2 2 2 2 2 2 1 1 1 1 1 1 1
0 0 0 0 0 0 0 0 1 1 1 1 1 1 1 1 2 2 2 2 2 2 2 2 2 2 2 2 2 2 2 2 2 2 2 2 2 1 1 1 1 1 1 1 1 1 1 1 1
0 0 0 0 0 0 0 1 1 1 1 1 1 1 1 1 1 1 1 1 1 1 1 1 1 1 1 1 1 1 1 1 1 1 1 1 1 1 1 1 1 1 1 1 1 1 1 1 1
0 0 0 0 0 0 0 1 1 1 1 0 0 0 0 0 0 0 0 0 1 1 1 1 1 1 1 1 1 1 1 1 1 1 1 1 1 1 1 1 1 1 1 1 0 0 0 0 0
0 0 0 0 0 0 0 1 1 0 0 0 0 0 0 0 0 0 0 0 0 0 0 0 1 1 1 1 0 0 0 1 1 1 1 1 0 0 1 1 1 1 0 0 0 0 0 0 0
0 0 0 0 0 0 0 0 0 0 0 0 0 0 0 0 0 0 0 0 0 0 0 0 0 0 1 0 0 0 0 0 0 0 0 0 0 0 0 0 0 0 0 0 0 0 0 0 0
0 0 0 0 0 0 0 0 0 0 0 0 0 0 0 0 0 0 0 0 0 0 0 0 0 0 1 0 0 0 0 0 0 0 0 0 0 0 0 0 0 0 0 0 0 0 0 0 0
0 0 0 0 0 0 0 0 0 0 0 0 0 0 0 0 0 0 0 0 0 0 0 0 1 1 1 0 0 0 0 0 0 0 0 0 0 0 0 0 0 0 0 0 0 0 0 0 0
0 0 0 0 0 0 0 0 0 0 0 0 0 0 0 0 0 0 0 0 0 0 0 0 1 1 1 0 0 0 0 0 0 0 0 0 0 0 0 0 0 0 0 0 0 0 0 0 0
0 0 0 0 0 0 0 0 0 0 0 0 0 0 0 0 0 0 0 0 0 0 0 0 0 0 0 0 0 0 0 0 0 0 0 0 0 0 0 0 0 0 0 0 0 0 0 0 0
0 0 0 0 0 0 0 0 0 0 0 0 0 0 0 0 0 0 0 0 0 0 0 0 0 0 0 0 0 0 0 0 0 0 0 0 0 0 0 0 0 0 0 0 0 0 0 0 0
0 0 0 0 0 0 0 0 0 0 0 0 0 0 0 0 0 0 0 0 0 0 0 0 0 0 0 0 0 0 0 0 0 0 0 0 0 0 0 0 0 0 0 0 0 0 0 0 0
0 0 0 0 0 0 0 0 0 0 0 0 0 0 0 0 0 0 0 0 0 0 0 0 0 0 0 0 0 0 0 0 0 0 0 0 0 0 0 0 0 0 0 0 0 0 0 0 0
0 0 0 0 0 0 0 0 0 0 0 0 0 0 0 0 0 0 0 0 0 0 0 0 0 0 0 0 0 0 0 0 0 0 0 0 0 0 0 0 0 0 0 0 0 0 0 0 0
0 0 0 0 0 0 0 0 0 0 0 0 0 0 0 0 0 0 0 0 0 0 0 0 0 0 0 0 0 0 0 0 0 0 0 0 0 0 0 0 0 0 0 0 0 0 0 0 0
0 0 0 0 0 0 0 0 0 0 0 0 0 0 0 0 0 0 0 0 0 0 0 0 0 0 0 0 0 0 0 0 0 0 0 0 0 0 0 0 0 0 0 0 0 0 0 0 0
Wind_Speed
12 13 11 8 6 5 5 4 10 11 12 10 8 10 18 17 12 9 11 17 23 20 18 17 15 14 12 11 10 9 10 11 11 11 10 10 10 9 9 8 8 7 7 8 8 8 8 8 8
12 14 11 8 8 5 1 6 10 10 8 5 8 13 17 17 12 12 13 17 22 20 17 15 16 14 12 11 10 10 10 10 11 11 11 10 10 9 9 8 8 7 7 7 8 8 8 7 7
13 15 9 8 10 4 4 9 7 6 7 6 11 15 12 11 12 11 13 17 20 18 16 17 17 15 13 11 10 10 10 10 10 11 10 10 10 9 9 8 8 7 7 7 8 8 8 7 7
9 10 8 11 13 3 7 8 5 6 7 4 10 13 11 9 10 13 14 18 20 18 17 17 16 15 13 12 10 9 9 9 9 10 10 10 9 9 9 8 8 8 8 8 8 8 8 8 7
10 8 12 14 11 3 5 5 3 5 6 7 14 15 13 12 13 14 13 18 18 18 17 17 16 14 13 12 10 9 9 8 8 8 8 8 8 9 9 9 9 9 8 9 8 9 9 9 8
8 9 13 11 4 1 4 5 6 6 9 9 11 15 11 10 12 12 13 14 17 19 18 15 15 14 12 11 10 9 8 8 8 8 8 8 8 9 9 9 10 10 10 10 10 10 10 10 10
10 13 17 18 9 1 4 6 7 8 10 7 6 11 11 11 9 11 10 11 15 19 18 14 13 12 11 10 10 9 9 8 8 8 8 8 9 10 10 10 11 11 11 10 11 11 11 11 11
11 12 19 18 13 1 6 5 7 7 8 8 10 9 8 11 10 11 9 9 10 15 17 14 14 12 11 10 11 11 10 9 9 9 9 10 10 11 12 11 12 13 13 12 12 12 12 12 11
15 13 16 16 9 3 8 6 6 6 12 16 15 12 11 10 11 10 9 9 8 9 12 10 12 12 10 11 13 12 11 11 10 10 12 11 9 11 11 15 15 17 16 15 14 14 13 12 13
14 13 18 12 7 7 7 5 6 4 14 14 12 11 8 8 8 7 8 8 8 7 7 6 6 7 5 4 8 7 8 9 9 8 10 9 8 8 10 13 20 20 18 17 16 15 14 12 9
16 17 17 14 7 6 6 4 8 9 12 11 10 8 6 7 6 6 6 6 8 7 6 7 6 6 5 3 3 1 2 4 8 9 7 6 6 6 7 4 9 12 14 11 11 12 10 10 8
17 15 15 11 7 5 6 4 9 14 10 10 10 9 9 11 12 12 12 11 10 9 10 9 9 8 7 6 4 2 2 1 2 4 5 4 3 5 4 3 3 5 6 8 8 7 10 10 10
15 13 13 8 5 3 2 3 8 12 10 9 10 12 13 14 14 14 13 14 13 12 11 10 9 8 6 5 4 5 4 4 4 2 2 3 3 4 5 4 4 4 4 6 7 7 9 9 9
11 10 9 5 4 2 3 5 7 10 9 10 11 11 13 13 14 14 14 13 13 12 11 9 8 8 6 4 3 3 4 4 4 3 4 3 3 4 5 5 5 5 5 5 5 7 7 7 6
11 11 9 7 7 6 8 7 8 9 8 9 8 8 10 11 11 12 12 12 11 11 10 9 7 8 6 5 5 4 4 4 4 4 5 5 4 5 5 5 5 5 5 6 5 6 6 6 7
12 13 10 3 3 6 8 7 8 8 8 7 7 8 9 9 10 10 10 10 9 9 9 9 9 8 6 5 4 4 4 4 3 3 4 5 5 5 4 4 4 4 4 5 5 6 6 6 6
9 7 2 3 6 6 5 11 8 8 8 8 7 8 8 7 8 8 9 9 8 8 7 6 6 7 7 6 4 4 3 3 2 2 3 4 5 5 4 3 3 3 3 4 6 6 5 6 6
4 3 2 4 6 6 4 10 10 8 8 8 8 8 7 8 8 7 7 8 7 6 6 5 5 5 6 5 5 4 4 4 3 2 3 4 4 5 4 3 3 3 2 3 4 5 5 5 5
8 9 9 7 5 3 6 9 9 9 9 9 8 8 8 8 8 7 6 6 7 5 4 3 3 4 4 4 5 4 4 4 3 1 3 3 3 4 3 3 3 2 2 2 3 3 4 4 4
7 3 5 2 4 6 4 8 10 8 8 9 10 9 9 9 8 6 5 5 4 4 2 1 3 4 4 4 5 4 4 4 4 2 1 1 2 3 4 3 3 3 2 2 2 2 2 3 3
8 9 4 3 6 7 4 5 7 7 8 8 9 8 8 8 7 5 3 2 1 1 0 2 2 2 4 5 5 6 5 5 4 4 2 2 3 3 2 3 3 3 3 2 2 2 1 3 3
3 6 7 4 5 4 3 3 5 7 8 9 9 8 7 5 5 4 2 0 2 2 2 2 2 3 3 4 6 8 8 7 7 5 4 5 5 5 3 2 2 3 3 3 3 2 2 2 3
4 4 2 5 4 6 6 5 4 7 7 8 9 8 6 5 4 3 2 2 3 4 4 3 3 3 4 5 6 7 7 7 6 7 8 8 7 6 5 3 2 2 2 2 3 3 3 2 2
7 4 4 10 8 5 3 2 5 8 11 10 9 7 5 3 2 2 2 2 2 4 4 4 4 4 4 5 6 6 7 7 8 9 9 8 5 4 4 3 1 1 2 2 3 3 4 3 3
8 7 3 4 2 7 7 5 5 8 9 8 7 5 3 1 2 1 2 4 4 5 4 4 5 5 5 5 5 6 7 8 9 9 7 7 6 6 5 5 2 2 2 3 3 3 4 4 4
8 7 4 6 5 4 7 5 4 7 7 5 3 2 0 1 3 4 5 5 5 6 6 5 5 5 5 5 6 5 7 7 6 7 8 8 7 7 7 6 4 4 4 5 4 3 4 4 4
9 10 11 8 8 1 7 6 5 5 5 3 2 2 4 5 7 7 8 8 8 7 6 6 5 5 5 6 6 7 6 6 7 7 8 8 7 8 8 8 8 7 6 6 5 4 5 4 4
7 9 8 8 8 7 4 7 5 4 3 5 6 6 7 7 8 10 10 9 9 8 7 6 6 6 6 6 6 8 6 6 6 8 8 8 8 8 8 8 8 8 7 7 6 6 6 6 5
7 8 8 8 8 8 6 7 8 4 4 5 6 7 7 9 10 10 9 9 9 9 8 7 7 7 6 6 6 6 7 7 7 7 8 7 7 8 8 8 9 9 9 8 7 7 7 7 6
4 5 6 7 8 8 7 7 4 3 6 7 8 8 8 8 9 9 9 9 9 10 10 9 8 8 7 6 6 7 7 7 8 9 8 7 8 8 9 9 9 10 10 9 9 9 10 8 8
Wind_Direction
181 195 207 225 236 236 278 350 45 42 51 50 46 50 60 50 49 73 88 101 110 120 130 135 134 134 132 129 129 134 144 151 152 150 149 148 148 149 147 146 146 145 142 138 135 131 128 123 119
197 205 214 237 240 241 322 35 49 55 53 55 62 59 68 63 68 89 95 112 118 125 137 137 138 138 136 132 132 137 144 151 154 155 154 155 156 158 159 159 160 162 157 151 145 140 136 133 131
229 233 248 247 252 266 39 50 43 75 67 55 77 65 56 66 77 94 116 125 122 127 131 132 143 141 140 139 139 143 148 152 157 158 159 160 162 165 169 171 173 175 173 166 158 152 147 146 147
237 229 238 252 273 358 42 46 24 67 78 45 82 82 75 57 84 108 132 128 121 130 131 138 144 144 145 146 147 149 153 157 162 165 166 169 172 175 179 181 184 186 186 179 173 166 161 161 165
241 254 246 256 276 13 52 47 10 57 87 68 89 95 90 86 99 123 138 125 134 135 130 141 145 146 149 151 155 159 163 167 170 174 177 181 184 187 190 192 193 194 194 188 180 175 173 175 178
253 252 265 278 276 25 51 42 20 38 54 49 91 107 99 112 122 132 132 138 136 130 130 138 145 149 153 157 162 167 173 178 183 187 190 195 200 204 206 204 201 202 201 195 189 187 186 187 188
256 277 286 290 286 281 68 32 23 50 57 35 46 101 123 127 128 128 133 134 132 128 130 143 149 153 159 166 173 177 183 189 196 201 205 209 213 216 218 215 213 210 206 201 198 196 196 196 197
265 284 287 285 285 320 79 58 46 45 62 51 44 80 123 125 134 126 136 126 117 126 134 149 157 156 167 175 184 187 192 197 205 212 216 219 223 225 225 223 219 217 213 210 209 207 205 204 204
263 268 272 280 310 24 55 35 30 55 63 50 42 60 104 122 125 134 136 123 113 116 130 146 150 156 177 181 176 185 197 205 209 216 221 224 228 225 218 223 218 214 215 216 215 214 212 210 211
240 257 267 293 353 351 22 23 352 29 58 41 32 47 78 108 116 134 134 132 131 120 109 97 117 140 168 174 152 182 196 196 206 216 209 211 228 243 241 216 213 214 214 216 218 218 218 215 218
243 255 276 301 338 340 332 43 33 31 54 32 25 32 54 80 83 84 94 105 115 110 80 80 72 75 53 46 108 190 207 187 201 223 220 211 225 240 251 242 205 210 214 217 218 218 219 218 220
249 258 278 294 324 333 317 4 63 56 52 32 29 27 44 58 56 55 59 59 70 73 66 51 49 49 38 26 3 324 316 284 219 211 223 227 231 254 265 267 237 204 208 211 220 214 215 220 222
245 252 267 281 289 285 277 67 76 66 56 46 41 41 44 48 53 54 56 57 58 57 53 47 46 45 33 20 343 340 330 327 318 314 279 262 255 260 270 272 271 261 241 219 217 220 219 218 221
271 257 250 246 252 201 194 111 86 72 69 61 50 46 47 47 47 51 50 51 52 51 46 39 43 40 24 1 340 316 315 323 318 337 342 333 303 281 271 271 268 265 265 261 239 233 231 226 225
259 260 243 210 203 176 168 113 88 87 85 80 74 65 58 57 56 55 54 54 53 52 43 27 49 39 23 5 353 339 337 346 346 352 342 339 324 305 289 276 270 266 270 273 271 258 244 231 229
241 239 234 222 237 191 207 112 99 108 107 98 92 86 77 67 68 67 68 66 64 61 55 39 33 29 15 10 352 340 344 353 345 350 348 350 341 326 308 295 288 286 283 276 268 257 255 249 240
243 264 274 2 317 263 196 120 130 130 121 112 104 99 95 90 83 80 81 78 75 70 64 59 46 26 3 1 354 349 347 347 334 10 16 0 347 343 328 312 305 295 280 279 273 256 244 247 248
343 345 325 256 253 248 133 124 134 131 130 123 119 116 112 104 96 94 94 98 94 84 67 48 50 38 358 5 350 353 352 354 340 16 43 10 355 354 337 309 312 309 298 300 288 277 263 246 240
219 194 181 213 248 268 154 141 142 145 145 134 131 126 123 117 118 119 120 115 108 98 86 61 36 34 359 12 346 335 335 337 315 319 66 24 5 348 321 321 311 300 285 295 305 276 269 251 240
273 256 154 189 335 303 186 151 141 150 142 139 139 141 139 133 132 135 138 128 115 111 102 128 44 28 357 5 319 302 322 313 293 331 23 360 8 339 332 334 312 309 294 288 290 274 275 278 255
325 346 332 245 236 252 240 153 131 137 138 147 143 143 139 140 139 140 138 127 125 110 53 34 40 7 7 345 318 331 324 310 316 335 322 348 334 303 294 313 319 321 309 301 286 266 259 276 276
334 297 286 268 251 273 235 200 173 175 175 168 157 159 153 147 150 154 174 230 308 343 354 35 29 15 0 341 336 331 316 311 321 323 329 330 312 291 275 264 300 319 315 317 302 317 283 272 282
274 219 302 356 349 331 13 358 234 186 191 184 173 167 162 166 171 167 235 274 317 341 348 4 14 12 360 347 329 322 316 322 321 321 314 308 294 268 258 240 231 277 292 318 325 324 306 276 263
297 299 27 34 26 346 281 234 234 195 194 188 178 164 169 181 203 212 256 291 325 333 341 353 2 357 354 340 326 315 315 314 311 302 292 289 286 285 279 271 224 256 297 314 308 310 302 288 272
312 301 324 7 71 252 236 230 218 188 170 162 152 154 161 194 255 282 323 342 346 340 345 351 352 353 347 330 317 313 312 307 294 291 303 316 318 316 315 309 287 278 280 279 272 275 284 288 282
297 302 305 302 281 215 185 208 147 123 107 106 102 91 75 323 359 354 354 355 351 348 351 350 348 342 334 322 313 309 299 298 305 321 326 313 301 294 291 302 296 272 256 260 255 258 259 261 268
327 333 331 310 313 317 147 135 110 139 149 125 48 5 3 12 360 354 358 354 357 355 353 348 345 339 332 321 309 292 295 316 316 309 297 296 301 305 313 322 310 293 274 257 252 249 249 250 249
328 330 341 335 337 341 78 116 140 158 71 27 360 6 15 6 359 360 356 351 352 347 345 345 345 339 327 316 313 317 325 311 302 304 301 297 293 291 292 289 288 284 278 261 242 243 241 232 232
340 357 355 340 346 335 2 80 103 78 39 9 3 12 11 4 357 350 347 350 346 339 338 341 337 330 324 321 319 314 309 310 305 297 295 298 300 300 295 291 288 284 278 271 254 243 246 241 236
320 2 352 347 343 326 331 99 84 57 55 36 15 14 12 3 350 346 345 345 341 337 336 333 331 324 321 322 319 313 311 305 301 301 302 300 297 295 294 290 287 283 280 272 263 250 245 238 235